Radioactive Concentration measured by Seawater Radiation Monitor near Fukushima Daiichi Nuclear Power Station
Date,Time,Cs137(Bq/L),Cs134(Bq/L),Total β(Bq/L)
2019/12/22,00:00,0.62,0.15,9.9
2019/12/22,00:10,0.63,0.15,9.9
2019/12/22,00:20,0.63,0.16,11
2019/12/22,00:30,0.63,0.17,13
2019/12/22,00:40,0.62,0.16,14
2019/12/22,00:50,0.62,0.17,14
2019/12/22,01:00,0.61,0.17,14
2019/12/22,01:10,0.60,0.16,11
2019/12/22,01:20,0.61,0.15,9.5
2019/12/22,01:30,0.61,0.14,9.0
2019/12/22,01:40,0.61,0.14,10
2019/12/22,01:50,0.60,0.14,9.6
2019/12/22,02:00,0.60,0.14,11
2019/12/22,02:10,0.60,0.14,13
2019/12/22,02:20,0.57,0.15,11
2019/12/22,02:30,0.60,0.14,ND
2019/12/22,02:40,0.61,0.14,ND
2019/12/22,02:50,0.61,0.15,ND
2019/12/22,03:00,0.62,0.15,ND
2019/12/22,03:10,0.61,0.16,ND
2019/12/22,03:20,0.63,0.15,ND
2019/12/22,03:30,0.61,0.16,ND
2019/12/22,03:40,0.61,0.16,ND
2019/12/22,03:50,0.61,0.16,ND
2019/12/22,04:00,0.60,0.16,ND
2019/12/22,04:10,0.60,0.14,10
2019/12/22,04:20,0.61,0.15,11
2019/12/22,04:30,0.61,0.15,11
2019/12/22,04:40,0.61,0.15,ND
2019/12/22,04:50,0.61,0.15,ND
2019/12/22,05:00,0.62,0.14,ND
2019/12/22,05:10,0.63,0.14,ND
2019/12/22,05:20,0.65,0.14,ND
2019/12/22,05:30,0.65,0.14,ND
2019/12/22,05:40,0.62,0.14,ND
2019/12/22,05:50,0.62,0.14,9.0
2019/12/22,06:00,0.62,0.16,ND
2019/12/22,06:10,0.62,0.16,ND
2019/12/22,06:20,0.62,0.17,ND
2019/12/22,06:30,0.63,0.18,ND
2019/12/22,06:40,0.66,0.17,ND
2019/12/22,06:50,0.68,0.16,ND
2019/12/22,07:00,0.67,0.15,ND
2019/12/22,07:10,0.67,0.15,ND
2019/12/22,07:20,0.67,0.15,ND
2019/12/22,07:30,0.67,0.14,ND
2019/12/22,07:40,0.64,0.15,11
2019/12/22,07:50,0.63,0.16,12
2019/12/22,08:00,0.62,0.16,10
2019/12/22,08:10,0.64,0.16,ND
2019/12/22,08:20,0.65,0.16,8.8
2019/12/22,08:30,0.64,0.16,ND
2019/12/22,08:40,0.65,0.16,ND
2019/12/22,08:50,0.66,0.14,ND
2019/12/22,09:00,0.64,0.15,9.0
2019/12/22,09:10,0.66,0.15,ND
2019/12/22,09:20,0.63,0.14,10
2019/12/22,09:30,0.62,0.14,11
2019/12/22,09:40,0.63,0.14,9.2
2019/12/22,09:50,0.61,0.14,10
2019/12/22,10:00,0.61,0.14,ND
2019/12/22,10:10,0.59,0.15,ND
2019/12/22,10:20,0.57,0.16,ND
2019/12/22,10:30,0.56,0.16,ND
2019/12/22,10:40,0.56,0.17,ND
2019/12/22,10:50,0.55,0.16,ND
2019/12/22,11:00,0.55,0.16,ND
2019/12/22,11:10,0.55,0.15,ND
2019/12/22,11:20,0.56,0.15,ND
2019/12/22,11:30,0.56,0.15,ND
2019/12/22,11:40,0.56,0.14,ND
2019/12/22,11:50,0.57,0.13,ND
2019/12/22,12:00,0.56,0.15,ND
2019/12/22,12:10,0.58,0.14,ND
2019/12/22,12:20,0.59,0.14,ND
2019/12/22,12:30,0.58,0.15,ND
2019/12/22,12:40,0.57,0.15,8.8
2019/12/22,12:50,0.57,0.16,9.7
2019/12/22,13:00,0.56,0.14,11
2019/12/22,13:10,0.54,0.15,14
2019/12/22,13:20,0.54,0.15,15
2019/12/22,13:30,0.55,0.15,15
2019/12/22,13:40,0.58,0.14,15
2019/12/22,13:50,0.60,0.14,13
2019/12/22,14:00,0.59,0.15,12
2019/12/22,14:10,0.59,0.14,8.9
2019/12/22,14:20,0.61,0.13,ND
2019/12/22,14:30,0.62,0.13,ND
2019/12/22,14:40,0.60,0.13,ND
2019/12/22,14:50,0.58,0.14,ND
2019/12/22,15:00,0.58,0.15,ND
2019/12/22,15:10,0.57,0.16,ND
2019/12/22,15:20,0.57,0.16,ND
2019/12/22,15:30,0.57,0.16,ND
2019/12/22,15:40,0.56,0.17,ND
2019/12/22,15:50,0.57,0.16,ND
2019/12/22,16:00,0.59,0.15,ND
2019/12/22,16:10,0.59,0.15,ND
2019/12/22,16:20,0.60,0.15,9.6
2019/12/22,16:30,0.60,0.15,11
2019/12/22,16:40,0.62,0.15,13
2019/12/22,16:50,0.62,0.16,10
2019/12/22,17:00,0.61,0.17,ND
2019/12/22,17:10,0.62,0.16,ND
2019/12/22,17:20,0.61,0.17,ND
2019/12/22,17:30,0.60,0.17,ND
2019/12/22,17:40,0.58,0.17,ND
2019/12/22,17:50,0.60,0.15,9.0
2019/12/22,18:00,0.62,0.14,9.5
2019/12/22,18:10,0.61,0.14,ND
2019/12/22,18:20,0.64,0.14,9.5
2019/12/22,18:30,0.65,0.13,9.3
2019/12/22,18:40,0.67,0.13,ND
2019/12/22,18:50,0.63,0.14,ND
2019/12/22,19:00,0.60,0.15,ND
2019/12/22,19:10,0.59,0.15,9.5
2019/12/22,19:20,0.58,0.15,ND
2019/12/22,19:30,0.55,0.15,ND
2019/12/22,19:40,0.54,0.15,ND
2019/12/22,19:50,0.54,0.16,9.9
2019/12/22,20:00,0.56,0.15,ND
2019/12/22,20:10,0.57,0.15,ND
2019/12/22,20:20,0.58,0.15,12
2019/12/22,20:30,0.59,0.14,10
2019/12/22,20:40,0.60,0.15,9.0
2019/12/22,20:50,0.61,0.15,ND
2019/12/22,21:00,0.59,0.16,ND
2019/12/22,21:10,0.62,0.15,ND
2019/12/22,21:20,0.60,0.15,ND
2019/12/22,21:30,0.58,0.16,ND
2019/12/22,21:40,0.59,0.15,ND
2019/12/22,21:50,0.60,0.16,ND
2019/12/22,22:00,0.59,0.15,ND
2019/12/22,22:10,0.57,0.16,ND
2019/12/22,22:20,0.58,0.16,ND
2019/12/22,22:30,0.59,0.15,ND
2019/12/22,22:40,0.59,0.16,ND
2019/12/22,22:50,0.60,0.16,ND
2019/12/22,23:00,0.58,0.16,ND
2019/12/22,23:10,0.57,0.17,ND
2019/12/22,23:20,0.55,0.17,ND
2019/12/22,23:30,0.57,0.18,ND
2019/12/22,23:40,0.56,0.18,9.0
2019/12/22,23:50,0.55,0.18,11
